Погода в Рош-Пинне

Израиль     32°58′10″N   35°32′58″E
темп.,
°C
ветер,
м/с
пор.,
м/с
влажн.,
%
обл.,
%
осадки,
мм/ч
давл.,
гПа
погр.,
м
16 июня, ср
ср1600:00+18сз22872 0.0 101137
03:00+18сз22891 0.0 101123
06:00+17сз22894 0.0 101237
09:00+23з35541 0.0 10121333
12:00+27з66410 0.0 10121592
15:00+27зсз77420 0.0 10121403
18:00+23сз78551 0.0 10131100
21:00+19сз34794 0.0 1014204
17 июня, чт
чт1700:00+19сз457845 0.1 1015301
03:00+18сз337335 0.1 1015203
06:00+18сз33691 0.0 1015144
09:00+22сз34500 0.0 1015974
12:00+27зсз55350 0.0 10151338
15:00+27сз55360 0.0 10141155
18:00+24сз56500 0.0 1014799
21:00+19сз35780 0.0 1015205
18 июня, пт
пт1800:00+18сз23861 0.0 101560
03:00+17сз22891 0.0 101431
06:00+17сз22904 0.0 101427
09:00+23зюз12540 0.0 1013810
12:00+30зсз33310 0.0 10121374
15:00+29сз54320 0.0 10111074
18:00+25сз56470 0.0 1011683
21:00+20сз34770 0.0 101297
19 июня, сб
сб1900:00+19сз22820 0.0 101238
03:00+18зсз22840 0.0 101128
06:00+17сз11870 0.0 101220
09:00+24зюз23510 0.0 1011864
12:00+30зсз44330 0.0 10101414
15:00+30зсз65340 0.0 10091290
18:00+26сз45480 0.0 1010789
21:00+20сз34780 0.0 101196
20 июня, вс
вс2000:00+19сз22800 0.0 101120
03:00+18сз22790 0.0 101118
06:00+17ссз11810 0.0 101212
09:00+25ю12390 0.0 1012659
12:00+31юз23190 0.0 10101519
15:00+32зсз43250 0.0 10091518
18:00+28сз44350 0.0 1010608
21:00+21сз34690 0.0 101172